Location: Kuppenheim
(48.8299°N, 8.2568°E)
Time: 07:59:13
(UTC+00:00)

N. Korean satellite - Visible Passes

Search period start: 28 November 2022 00:00
Search period end: 08 December 2022 00:00
Orbit: 422 x 454 km, 97.3° (Epoch: 27 November)

Date Brightness Start Highest point End Pass type
(mag) Time Alt. Az. Time Alt. Az. Time Alt. Az.
28 Nov 8.5 04:16:53 10° NE 04:19:56 29° E 04:22:57 10° SSE visible
28 Nov 7.7 05:49:39 10° NNW 05:52:19 21° WNW 05:54:58 10° WSW visible
28 Nov 8.4 16:22:17 10° SSW 16:25:22 33° W 16:28:30 10° NNW visible
29 Nov 10.0 03:40:04 10° ENE 03:40:58 11° E 03:41:52 10° ESE visible
29 Nov 6.4 05:10:28 10° N 05:13:52 58° WNW 05:17:12 10° SSW visible
30 Nov 7.6 04:31:51 10° NNE 04:35:09 44° E 04:38:26 10° S visible
30 Nov 8.1 06:05:18 10° NNW 06:07:21 15° WNW 06:09:23 10° W visible
30 Nov 9.2 16:37:51 10° SSW 16:40:34 23° W 16:43:21 10° NW visible
01 Dec 9.5 03:54:02 10° NE 03:56:13 16° E 03:58:22 10° SE visible
01 Dec 6.9 05:25:41 10° N 05:28:54 38° WNW 05:32:05 10° SW visible
02 Dec 6.7 04:46:48 10° NNE 04:50:13 69° E 04:53:37 10° S visible
02 Dec 8.4 06:21:23 10° NW 06:22:13 11° WNW 06:23:03 10° WNW visible
02 Dec 9.6 16:53:35 10° SW 16:55:42 16° W 16:57:51 10° NW visible
03 Dec 8.9 04:08:31 10° NE 04:11:19 23° E 04:14:04 10° SSE visible
03 Dec 7.4 05:40:54 10° N 05:43:48 26° WNW 05:46:40 10° SW visible
03 Dec 7.8 16:13:26 10° S 16:16:41 43° W 16:19:58 10° NNW visible
04 Dec 6.2 05:01:43 10° N 05:05:09 76° WNW 05:08:31 10° SSW visible
04 Dec 10.1 17:09:53 10° WSW 17:10:44 11° W 17:11:35 10° WNW visible
05 Dec 8.1 04:23:06 10° NNE 04:26:15 33° E 04:29:21 10° SSE visible
05 Dec 7.8 05:56:06 10° NNW 05:58:33 18° WNW 06:00:57 10° WSW visible
05 Dec 8.7 16:28:35 10° SSW 16:31:35 29° W 16:34:36 10° NW visible
06 Dec 9.8 03:45:36 10° ENE 03:47:06 12° E 03:48:36 10° ESE visible
06 Dec 6.5 05:16:35 10° N 05:19:54 49° WNW 05:23:10 10° SSW visible
07 Dec 7.2 04:37:41 10° NNE 04:41:02 51° E 04:44:19 10° S visible
07 Dec 8.2 06:11:28 10° NNW 06:13:08 13° WNW 06:14:48 10° W visible
07 Dec 9.4 16:43:48 10° SW 16:46:22 20° W 16:48:58 10° NW visible
